Weather Service Report


171 
ASUS45 KREV 291410
RWRNV 
NEVADA REGIONAL WEATHER ROUNDUP
NATIONAL WEATHER SERVICE RENO NV
700 AM PDT TUE JUL 29 2014

NOTE: "FAIR" INDICATES FEW OR NO CLOUDS BELOW 12,000 FEET WITH NO
SIGNIFICANT WEATHER AND/OR OBSTRUCTIONS TO VISIBILITY.

NVZ001-003-004-291500-
WESTERN NEVADA
  
CITY           SKY/WX    TMP DP  RH WIND       PRES   REMARKS
RENO           CLOUDY    72  51  47 CALM      30.22S                  
CARSON CITY    FAIR      68  48  49 CALM      30.25R                  
SLIDE MTN        N/A     54  34  47 NW16        N/A                   
PYRAMID LAKE     N/A     77 N/A N/A E2          N/A                   
FALLON         CLOUDY    68  50  52 S6        30.17R                  
LOVELOCK       MOSUNNY   63  48  58 CALM      30.15R                  
HAWTHORNE      SUNNY     68  57  68 CALM      30.21S                  
$$

NVZ002-CAZ072-073-291500-
NORTHERN AND CENTRAL SIERRA
  
CITY           SKY/WX    TMP DP  RH WIND       PRES   REMARKS
S. LAKE TAHOE  MOSUNNY   58  43  57 S5        30.37R                  
TRUCKEE        PTSUNNY   55  43  62 CALM      30.35S                  
SQUAW VLY 8000 NOT AVBL                                               
SUSANVILLE     SUNNY     73  37  27 CALM      30.21R                  
BLUE CANYON    CLOUDY    70  31  23 S6        30.32R                  
MAMMOTH LAKES  CLOUDY    52  48  87 CALM      30.42F                  
BRIDGEPORT     FAIR      51  46  83 CALM      30.38S                  
$$

NVZ030-031-036-291500-
NORTHERN NEVADA
  
CITY           SKY/WX    TMP DP  RH WIND       PRES   REMARKS
ELKO           CLOUDY    64  54  69 CALM      30.24S                  
WINNEMUCCA     CLOUDY    74  45  35 S8        30.18R                  
WENDOVER       CLOUDY    68  61  77 E5        30.22R                  
$$

NVZ035-037-291500-
CENTRAL NEVADA
  
CITY           SKY/WX    TMP DP  RH WIND       PRES   REMARKS
ELY            CLOUDY    59  56  89 CALM      30.32S                  
$$

NVZ013-014-291500-
SOUTH CENTRAL NEVADA
  
CITY           SKY/WX    TMP DP  RH WIND       PRES   REMARKS
TONOPAH        CLOUDY    62  57  83 NE6       30.30S                  
$$

NVZ017-020-022-291500-
SOUTHERN NEVADA
  
CITY           SKY/WX    TMP DP  RH WIND       PRES   REMARKS
LAS VEGAS      MOSUNNY   80  62  54 S9        30.01R                  
N. LAS VEGAS   SUNNY     81  59  47 CALM      30.04R                  
NELLIS AFB     SUNNY     78  67  68 CALM      30.03R                  
HENDERSON      SUNNY     76  65  68 SW12      30.07R                  
MERCURY        NOT AVBL                                               
$$

Return to Home page


Western Regional Climate Center, wrcc@dri.edu